This is the latest recevied weather packets stored in our database for station/object KB0Y. If no packets are shown the sender has not sent any weather packets the latest 10 day(s).
| Time | Temp. | Humidity | Pressure | Rain* | Wind** | Luminosity | Snow |
|---|---|---|---|---|---|---|---|
| 1778248076 | 20.56° C | 81% | 1020.3 hPa | 0 mm | - | 129 W/m² | - |
| 1778247470 | 20.56° C | 81% | 1020.3 hPa | 0 mm | - | 63 W/m² | - |
| 1778247168 | 20.56° C | 80% | 1020.3 hPa | 0 mm | - | 82 W/m² | - |
| 1778246866 | 20.56° C | 81% | 1020.3 hPa | 0 mm | - | 82 W/m² | - |
| 1778246563 | 20.56° C | 80% | 1020.3 hPa | 0 mm | - | 133 W/m² | - |
| 1778246258 | 20.56° C | 80% | 1020 hPa | 0 mm | - | 117 W/m² | - |
| 1778245955 | 20.56° C | 81% | 1020 hPa | 0 mm | - | 109 W/m² | - |
| 1778245651 | 20.56° C | 82% | 1020 hPa | 0 mm | - | 145 W/m² | - |
| 1778245349 | 20.56° C | 82% | 1020 hPa | 0 mm | - | 148 W/m² | - |
| 1778245044 | 20.56° C | 84% | 1020.3 hPa | 0 mm | - | 103 W/m² | - |
| 1778244136 | 20° C | 86% | 1020.3 hPa | 0 mm | - | 64 W/m² | - |
| 1778243834 | 20° C | 86% | 1020.3 hPa | 0 mm | - | 76 W/m² | - |
| 1778243532 | 20° C | 85% | 1020 hPa | 0 mm | - | 69 W/m² | - |
| 1778243228 | 20° C | 85% | 1020.3 hPa | 0 mm | - | 36 W/m² | - |
| 1778242925 | 20° C | 85% | 1020 hPa | 0 mm | - | 38 W/m² | - |
| 1778242623 | 20° C | 86% | 1020 hPa | 0 mm | - | 30 W/m² | - |
| 1778242321 | 20° C | 86% | 1019.6 hPa | 0 mm | - | 47 W/m² | - |
| 1778242018 | 20° C | 89% | 1019.6 hPa | 0 mm | - | 43 W/m² | - |
| 1778241716 | 20° C | 91% | 1019.6 hPa | 0 mm | - | 42 W/m² | - |
| 1778241414 | 20° C | 92% | 1019.6 hPa | 0 mm | - | 43 W/m² | - |
| 1778241110 | 20° C | 93% | 1019.3 hPa | 0 mm | - | 44 W/m² | - |
| 1778240807 | 20.56° C | 93% | 1018.9 hPa | 0 mm | - | 37 W/m² | - |
| 1778240504 | 20.56° C | 93% | 1019.3 hPa | 0 mm | - | 30 W/m² | - |
| 1778240201 | 20.56° C | 93% | 1019.3 hPa | 0 mm | - | 26 W/m² | - |
| 1778239899 | 20.56° C | 94% | 1018.9 hPa | 0 mm | - | 21 W/m² | - |
* Rain latest hour (hover to see other rain measurements)
** Current wind speed in m/s (hover to see current wind gust speed)